When you browse on this site, cookies collect data to enhance your experience and personalize the content and advertising you see.
Visit our Privacy Policy to learn more. By continuing to use the site, you agree to this use of cookies and data.
  • In Hungary
  • List of Countries
  • For 7 days
  • Water Temperature
  • Weather Map
  • News
  • Weather Widgets
  • user-avatar
    Login

    Hourly Weather Elizavetinskoe

    Today, 18 January, Saturday

    Time Temperature Precipitation Wind Pressure Humidity
    00:00 -13°C° 0 mm 1 mps 739 mmHg 94%
    01:00 -14°C° 0 mm 1 mps 739 mmHg 96%
    02:00 -14°C° 0 mm 1 mps 739 mmHg 93%
    03:00 -14°C° 0 mm 1 mps 738 mmHg 91%
    04:00 -16°C° 0 mm 2 mps 738 mmHg 87%
    05:00 -15°C° 0 mm 2 mps 738 mmHg 88%
    06:00 -14°C° 0 mm 3 mps 737 mmHg 90%
    07:00 -12°C° 0 mm 3 mps 737 mmHg 91%
    08:00 -11°C° 0 mm 4 mps 736 mmHg 91%
    09:00 -11°C° 0 mm 5 mps 736 mmHg 90%
    10:00 -8°C° 0 mm 5 mps 735 mmHg 89%
    11:00 -8°C° 0.1 mm 6 mps 735 mmHg 89%
    12:00 -6°C° 0.1 mm 6 mps 734 mmHg 89%
    13:00 -5°C° 0.1 mm 6 mps 734 mmHg 89%
    14:00 -5°C° 0.1 mm 6 mps 734 mmHg 90%
    15:00 -5°C° 0.1 mm 5 mps 734 mmHg 90%
    16:00 -5°C° 0.1 mm 5 mps 734 mmHg 91%
    17:00 -6°C° 0 mm 5 mps 735 mmHg 91%
    18:00 -5°C° 0 mm 4 mps 735 mmHg 90%
    19:00 -5°C° 0 mm 4 mps 735 mmHg 90%
    20:00 -7°C° 0 mm 4 mps 736 mmHg 90%
    21:00 -7°C° 0 mm 3 mps 737 mmHg 90%
    22:00 -9°C° 0 mm 3 mps 737 mmHg 90%
    23:00 -9°C° 0 mm 2 mps 738 mmHg 92%

    Tomorrow, 19 January, Sunday

    Time Temperature Precipitation Wind Pressure Humidity
    00:00 -10°C° 0 mm 1 mps 738 mmHg 94%
    01:00 -11°C° 0 mm 1 mps 738 mmHg 95%
    02:00 -12°C° 0 mm 1 mps 739 mmHg 95%
    03:00 -13°C° 0 mm 1 mps 739 mmHg 94%
    04:00 -13°C° 0 mm 1 mps 740 mmHg 94%
    05:00 -14°C° 0 mm 1 mps 739 mmHg 92%
    06:00 -14°C° 0 mm 1 mps 739 mmHg 91%
    07:00 -15°C° 0 mm 1 mps 739 mmHg 89%
    08:00 -14°C° 0 mm 1 mps 739 mmHg 88%
    09:00 -13°C° 0 mm 1 mps 740 mmHg 88%
    10:00 -13°C° 0 mm 1 mps 740 mmHg 87%
    11:00 -12°C° 0 mm 1 mps 740 mmHg 86%
    12:00 -10°C° 0 mm 1 mps 740 mmHg 84%
    13:00 -9°C° 0 mm 1 mps 739 mmHg 83%
    14:00 -9°C° 0 mm 1 mps 739 mmHg 86%
    15:00 -9°C° 0 mm 0 mps 739 mmHg 89%
    16:00 -10°C° 0 mm 0 mps 739 mmHg 92%
    17:00 -9°C° 0.2 mm 1 mps 739 mmHg 93%
    18:00 -9°C° 0.2 mm 1 mps 739 mmHg 94%
    19:00 -9°C° 0.2 mm 1 mps 739 mmHg 95%
    20:00 -9°C° 0.3 mm 1 mps 738 mmHg 95%
    21:00 -9°C° 0.3 mm 1 mps 738 mmHg 95%
    22:00 -9°C° 0.3 mm 1 mps 738 mmHg 95%
    23:00 -9°C° 0.2 mm 1 mps 738 mmHg 95%

    Day after tomorrow, 20 January, Monday

    Time Temperature Precipitation Wind Pressure Humidity
    00:00 -9°C° 0.2 mm 1 mps 737 mmHg 95%
    01:00 -9°C° 0.2 mm 1 mps 737 mmHg 95%
    02:00 -9°C° 0.3 mm 1 mps 736 mmHg 95%
    03:00 -9°C° 0.3 mm 1 mps 736 mmHg 95%
    04:00 -10°C° 0.3 mm 2 mps 736 mmHg 95%
    05:00 -12°C° 0.3 mm 2 mps 735 mmHg 95%
    06:00 -12°C° 0.3 mm 2 mps 735 mmHg 95%
    07:00 -12°C° 0.3 mm 2 mps 734 mmHg 95%
    08:00 -13°C° 0.3 mm 2 mps 734 mmHg 95%
    09:00 -13°C° 0.3 mm 2 mps 734 mmHg 94%
    10:00 -15°C° 0.3 mm 3 mps 734 mmHg 94%
    11:00 -14°C° 0.1 mm 2 mps 734 mmHg 93%
    12:00 -14°C° 0.1 mm 2 mps 734 mmHg 93%
    13:00 -14°C° 0.1 mm 2 mps 734 mmHg 92%
    14:00 -14°C° 0 mm 2 mps 734 mmHg 94%
    15:00 -15°C° 0 mm 2 mps 735 mmHg 95%
    16:00 -16°C° 0 mm 2 mps 735 mmHg 97%
    17:00 -17°C° 0 mm 2 mps 735 mmHg 97%
    18:00 -16°C° 0 mm 1 mps 735 mmHg 98%
    19:00 -16°C° 0 mm 1 mps 735 mmHg 98%
    20:00 -17°C° 0 mm 1 mps 735 mmHg 98%
    21:00 -18°C° 0 mm 1 mps 735 mmHg 98%
    22:00 -18°C° 0 mm 1 mps 736 mmHg 99%
    23:00 -19°C° 0 mm 1 mps 735 mmHg 99%

    21 January, Tuesday

    Time Temperature Precipitation Wind Pressure Humidity
    00:00 -19°C° 0 mm 1 mps 735 mmHg 99%
    01:00 -19°C° 0 mm 0 mps 735 mmHg 99%
    02:00 -19°C° 0 mm 0 mps 735 mmHg 99%
    03:00 -20°C° 0 mm 0 mps 735 mmHg 99%
    04:00 -20°C° 0 mm 0 mps 735 mmHg 99%
    05:00 -20°C° 0 mm 1 mps 735 mmHg 99%
    06:00 -19°C° 0 mm 1 mps 734 mmHg 99%
    07:00 -19°C° 0 mm 1 mps 734 mmHg 99%
    08:00 -18°C° 0 mm 1 mps 734 mmHg 98%
    09:00 -17°C° 0 mm 1 mps 734 mmHg 97%
    10:00 -18°C° 0 mm 2 mps 734 mmHg 96%
    11:00 -17°C° 0 mm 2 mps 734 mmHg 94%
    12:00 -15°C° 0 mm 2 mps 733 mmHg 92%
    13:00 -13°C° 0 mm 2 mps 732 mmHg 90%
    14:00 -14°C° 0 mm 2 mps 732 mmHg 91%
    15:00 -14°C° 0 mm 2 mps 731 mmHg 93%
    16:00 -15°C° 0 mm 2 mps 731 mmHg 94%
    17:00 -15°C° 0 mm 2 mps 730 mmHg 95%
    18:00 -16°C° 0 mm 3 mps 729 mmHg 95%
    19:00 -16°C° 0 mm 3 mps 729 mmHg 95%
    20:00 -15°C° 0 mm 3 mps 728 mmHg 95%
    21:00 -15°C° 0 mm 3 mps 727 mmHg 94%
    22:00 -14°C° 0 mm 3 mps 726 mmHg 94%
    23:00 -15°C° 0 mm 4 mps 725 mmHg 93%

    22 January, Wednesday

    Time Temperature Precipitation Wind Pressure Humidity
    00:00 -14°C° 0 mm 4 mps 724 mmHg 92%
    01:00 -12°C° 0 mm 4 mps 723 mmHg 91%
    02:00 -12°C° 0 mm 5 mps 723 mmHg 90%
    03:00 -12°C° 0 mm 5 mps 722 mmHg 89%
    04:00 -11°C° 0 mm 5 mps 721 mmHg 89%
    05:00 -11°C° 0.1 mm 5 mps 720 mmHg 89%
    06:00 -11°C° 0.1 mm 5 mps 719 mmHg 89%
    07:00 -11°C° 0.1 mm 5 mps 718 mmHg 89%
    08:00 -11°C° 0.1 mm 5 mps 717 mmHg 89%
    09:00 -10°C° 0.1 mm 5 mps 717 mmHg 88%
    10:00 -10°C° 0.1 mm 5 mps 716 mmHg 88%
    11:00 -10°C° 0.1 mm 5 mps 716 mmHg 88%
    12:00 -10°C° 0.1 mm 5 mps 715 mmHg 87%
    13:00 -8°C° 0.1 mm 5 mps 715 mmHg 87%
    14:00 -9°C° 0 mm 4 mps 714 mmHg 88%
    15:00 -8°C° 0 mm 3 mps 714 mmHg 90%
    16:00 -8°C° 0 mm 3 mps 714 mmHg 91%
    17:00 -8°C° 0 mm 3 mps 713 mmHg 92%
    18:00 -9°C° 0 mm 3 mps 713 mmHg 92%
    19:00 -9°C° 0 mm 3 mps 713 mmHg 93%
    20:00 -8°C° 0 mm 2 mps 712 mmHg 93%
    21:00 -7°C° 0 mm 2 mps 712 mmHg 94%
    22:00 -7°C° 0 mm 2 mps 712 mmHg 94%
    23:00 -7°C° 0.2 mm 2 mps 711 mmHg 95%

    23 January, Thursday

    Time Temperature Precipitation Wind Pressure Humidity
    00:00 -7°C° 0.2 mm 2 mps 710 mmHg 95%
    01:00 -7°C° 0.2 mm 2 mps 710 mmHg 96%
    02:00 -7°C° 0.3 mm 2 mps 709 mmHg 96%
    03:00 -7°C° 0.3 mm 2 mps 708 mmHg 96%
    04:00 -7°C° 0.3 mm 2 mps 708 mmHg 96%
    05:00 -7°C° 0.3 mm 2 mps 707 mmHg 96%
    06:00 -6°C° 0.3 mm 1 mps 706 mmHg 96%
    07:00 -6°C° 0.3 mm 1 mps 705 mmHg 96%
    08:00 -6°C° 0.5 mm 1 mps 705 mmHg 96%
    09:00 -6°C° 0.5 mm 1 mps 705 mmHg 95%
    10:00 -4°C° 0.5 mm 1 mps 705 mmHg 95%
    11:00 -6°C° 0.3 mm 2 mps 706 mmHg 94%
    12:00 -7°C° 0.3 mm 3 mps 707 mmHg 94%
    13:00 -8°C° 0.3 mm 4 mps 708 mmHg 93%
    14:00 -10°C° 0.2 mm 5 mps 709 mmHg 91%
    15:00 -11°C° 0.2 mm 6 mps 710 mmHg 90%
    16:00 -11°C° 0.2 mm 6 mps 711 mmHg 88%
    17:00 -12°C° 0 mm 6 mps 712 mmHg 88%
    18:00 -14°C° 0 mm 6 mps 714 mmHg 88%
    19:00 -14°C° 0 mm 5 mps 715 mmHg 88%
    20:00 -15°C° 0 mm 5 mps 715 mmHg 90%
    21:00 -15°C° 0 mm 4 mps 716 mmHg 91%
    22:00 -16°C° 0 mm 4 mps 716 mmHg 92%
    23:00 -16°C° 0 mm 4 mps 717 mmHg 92%
    Show more